Helicity
16 7 12 14 -6 -34 -50 -55 -50 -13 37 43 27 40 43 56 86 83 120 230 205 170 164 157 184 202 149 171 140 153 149 102 49 6 105 91 63 125 185 209 314 153 118
8 12 12 13 1 -13 -35 -42 -52 -66 -58 -17 30 64 86 94 74 122 118 149 189 175 147 156 174 161 187 184 172 213 230 204 60 29 -29 174 99 88 112 159 134 -63 8
14 13 17 19 13 2 -17 -32 -30 -42 -55 -73 -32 38 120 139 100 91 95 110 139 167 204 217 234 238 232 180 184 157 121 71 63 39 10 118 74 263 150 123 113 151 81
22 20 18 5 -10 -12 -2 -8 -18 -20 -3 -24 -46 -52 -27 28 67 67 90 90 101 120 139 192 204 233 294 266 220 216 202 146 119 69 41 -21 -11 56 190 211 262 311 121
24 24 15 -6 -1 9 18 19 22 7 19 16 9 13 5 -1 -27 -16 -5 36 89 118 106 126 173 182 219 243 258 315 244 185 185 170 217 203 225 157 110 102 96 106 193
33 29 12 -3 -1 -8 -6 -5 2 6 8 36 19 11 19 32 21 36 21 5 -2 12 58 82 112 162 119 189 217 243 290 251 247 194 282 299 301 151 168 40 23 85 40
36 35 14 11 8 -2 -12 -13 -16 -11 -9 -4 11 -6 2 15 14 9 24 24 49 83 85 73 52 74 72 71 131 144 205 256 234 162 140 178 234 290 268 100 56 69 40
45 35 20 15 18 3 -11 -17 -18 -16 -9 -2 7 14 9 31 44 25 10 3 22 64 94 83 75 97 106 51 23 51 63 80 128 145 162 155 160 228 230 168 198 -6 -75
60 55 35 22 19 15 2 -5 -12 -14 -13 -9 3 10 26 47 72 40 -14 -14 9 31 46 106 100 93 106 72 45 46 57 75 55 69 55 85 124 192 214 136 221 195 101
77 67 55 48 34 27 20 9 -2 -12 -10 -16 -4 12 39 33 98 99 35 -3 8 2 23 39 102 78 91 96 56 54 67 63 60 62 77 101 108 94 125 105 94 107 139
89 68 71 64 53 43 28 11 9 6 4 -0 -8 -10 11 43 51 85 87 36 23 21 30 36 40 76 91 86 80 59 49 49 75 73 68 91 107 130 139 126 118 60 38
83 74 76 72 57 47 39 27 25 8 14 8 3 2 4 12 43 49 60 50 25 15 15 17 28 58 67 97 67 83 88 62 62 77 87 104 113 137 133 128 123 126 50
93 82 85 79 65 58 49 35 27 27 18 10 7 5 7 9 10 42 48 47 30 -0 -11 -4 24 52 67 59 111 126 117 110 101 105 109 118 121 122 110 132 117 140 86
96 86 84 81 67 61 52 55 49 34 24 24 23 19 15 18 20 20 20 13 5 -1 9 17 22 23 31 33 48 65 62 55 41 52 80 103 113 117 123 131 125 134 123
100 87 79 76 77 81 90 84 43 60 67 35 36 29 28 25 16 9 8 11 -0 -18 4 25 35 36 42 44 44 42 56 73 79 78 84 86 89 108 135 127 127 131 134
96 86 89 79 62 51 45 50 70 60 67 83 83 76 42 46 38 35 19 17 29 5 22 27 29 29 36 43 47 44 45 62 69 74 75 82 86 78 88 97 103 108 120
107 105 100 79 71 67 52 38 50 38 52 51 62 70 60 46 55 62 39 6 50 43 39 37 41 47 49 54 51 46 47 49 55 61 67 72 77 85 79 76 76 83 92
139 141 105 101 91 77 71 65 54 39 21 36 54 42 47 48 58 73 68 38 38 52 43 45 49 52 54 53 57 51 45 40 41 45 57 59 63 66 77 89 89 76 86
133 124 118 108 104 93 75 67 58 49 46 42 36 42 54 34 15 58 70 53 48 50 50 54 54 59 63 59 57 49 46 52 51 52 60 57 63 58 58 54 53 65 72
155 141 114 102 86 80 73 66 62 56 48 53 66 71 55 38 57 59 61 60 57 58 56 55 59 63 59 59 56 60 57 65 74 75 81 76 68 56 60 61 61 61 66
132 118 112 100 91 83 76 74 70 66 69 71 87 87 56 44 69 66 64 64 65 62 63 61 60 60 59 66 66 75 77 80 84 89 93 86 76 62 74 65 59 56 53
118 117 97 97 92 82 87 83 79 84 85 82 89 83 60 61 81 77 82 80 67 65 65 65 62 65 69 81 78 75 80 85 97 108 99 86 77 79 89 76 69 57 51
107 97 98 94 95 98 74 81 85 80 89 97 103 101 93 97 93 93 91 85 77 73 72 68 65 77 81 78 70 83 89 98 102 99 85 78 70 83 88 81 72 60 53
88 81 82 89 78 76 81 79 98 106 108 108 111 110 107 96 97 97 92 92 83 74 68 72 64 79 85 86 89 89 94 104 84 76 66 66 55 64 86 73 66 63 49
85 82 91 88 86 78 100 84 90 100 112 120 117 109 109 100 105 105 101 92 95 80 71 70 84 80 88 85 67 97 90 67 70 67 68 44 26 33 74 80 70 61 61
83 84 93 96 91 86 82 92 101 118 122 120 113 110 112 110 111 116 114 100 98 77 73 84 78 88 82 75 118 94 73 78 90 96 91 58 33 81 91 77 61 65 64
Wind_Speed
55 56 59 63 65 68 69 67 62 61 60 62 62 60 56 56 54 51 49 42 35 36 42 49 55 61 65 65 69 75 84 82 98 92 79 83 77 73 69 67 73 72 70
53 52 55 58 62 64 64 63 60 56 56 59 56 57 55 53 51 48 46 41 38 37 39 40 45 49 52 57 59 65 67 69 75 92 75 78 79 72 68 70 71 75 82
47 50 53 56 59 59 57 55 54 54 59 61 58 58 55 53 51 52 49 46 43 41 41 41 43 43 43 47 50 55 60 63 67 75 86 71 63 62 71 70 70 71 74
44 47 50 50 39 25 16 28 42 49 49 57 61 63 58 55 55 53 51 50 50 48 46 46 46 45 43 41 41 44 48 50 54 55 60 59 56 59 53 65 67 63 64
41 44 45 28 9 14 15 12 9 20 24 32 41 44 49 53 58 56 56 56 53 50 50 50 51 48 51 49 41 39 35 35 41 48 55 60 58 60 54 53 54 55 48
38 39 34 21 16 22 15 10 11 14 18 20 25 34 32 25 42 53 55 59 60 58 53 53 53 53 49 51 49 48 44 36 34 37 42 51 56 57 58 60 56 53 60
32 34 28 25 28 31 32 32 35 34 38 42 38 41 49 30 33 39 41 47 55 55 55 55 53 52 51 49 50 48 49 46 40 36 38 43 49 57 64 66 64 62 59
28 29 29 31 32 36 39 41 44 49 50 50 48 47 48 52 48 42 49 55 55 58 61 60 58 56 56 52 51 47 50 52 50 45 43 46 50 54 55 58 62 50 50
26 28 28 31 34 37 40 43 45 50 52 53 56 54 53 55 56 48 47 55 63 63 58 60 61 62 62 61 57 54 54 55 53 52 51 51 53 55 57 55 59 60 62
24 27 27 29 33 37 40 43 46 48 51 53 55 57 56 56 59 59 54 62 65 66 70 70 69 69 66 65 62 58 57 58 58 56 56 55 57 58 60 58 58 60 63
23 25 26 28 32 36 40 42 45 47 50 52 52 54 57 59 61 64 64 65 65 65 67 68 71 72 74 73 72 70 67 64 63 62 61 62 63 64 64 62 62 58 60
20 23 24 27 30 34 38 42 44 45 48 50 51 52 55 57 62 63 66 65 64 64 65 66 67 69 70 73 72 72 70 67 66 67 67 69 70 70 69 67 65 63 55
19 22 24 26 29 33 37 40 42 46 47 49 50 52 55 58 60 63 64 65 64 62 62 64 65 67 68 68 72 73 71 71 70 70 70 71 71 70 68 69 66 66 62
18 22 25 26 28 32 35 40 43 46 47 49 51 53 54 58 61 64 64 64 63 62 61 62 64 65 67 68 70 72 72 72 72 71 71 71 71 72 72 73 72 72 71
18 21 25 25 27 30 34 39 39 45 49 48 52 52 56 58 62 63 63 65 64 63 61 62 66 67 69 71 72 72 74 75 75 74 75 76 76 76 77 76 75 75 75
13 18 25 27 27 28 29 33 39 41 44 49 51 52 52 57 61 63 62 62 66 64 61 64 67 69 71 72 74 75 75 76 77 76 77 79 80 80 81 79 78 78 80
17 18 23 27 30 32 34 36 35 38 41 44 48 52 54 57 62 65 65 61 64 64 64 66 68 70 71 71 73 74 75 75 75 76 78 79 81 80 80 79 79 79 82
18 20 20 23 28 32 35 37 40 42 42 43 46 50 53 57 61 65 67 62 63 65 66 67 69 70 71 73 73 74 74 74 75 76 76 77 78 79 80 80 80 81 83
17 18 21 23 27 30 33 36 39 41 44 46 48 49 56 56 55 61 64 64 65 67 68 69 70 71 72 73 74 74 75 75 76 75 74 75 77 79 80 80 81 82 84
19 18 19 22 24 29 32 35 38 41 44 47 49 54 59 58 60 62 63 64 65 66 68 69 70 71 72 73 74 75 75 75 75 75 75 76 77 78 81 83 84 86 87
19 18 20 23 27 30 32 36 39 42 45 48 49 51 55 57 59 60 61 62 64 66 68 69 70 71 72 73 74 75 74 74 74 74 75 75 75 78 77 81 82 84 85
20 20 21 24 27 30 33 36 39 42 45 47 50 48 52 53 56 58 59 61 63 64 66 68 70 70 71 72 73 73 73 73 74 75 75 74 74 75 77 80 82 83 85
20 22 23 26 29 31 33 37 39 42 44 47 49 51 52 53 55 56 59 60 62 64 66 67 68 69 68 70 68 69 70 71 72 72 74 73 72 71 73 77 80 82 84
21 23 26 28 30 32 35 36 39 42 44 46 48 49 51 53 54 56 57 60 61 64 65 66 65 67 70 69 68 66 66 68 69 68 67 68 66 66 70 72 77 81 82
22 24 26 28 31 33 36 36 38 40 43 45 47 49 50 51 53 55 57 59 61 64 65 65 65 67 68 70 65 65 68 66 67 66 62 57 58 60 63 69 74 77 79
20 22 25 29 31 33 34 36 38 41 43 45 46 47 49 51 53 55 57 59 63 64 64 65 65 67 68 65 64 68 65 66 65 68 62 50 51 57 61 66 71 73 76
Wind_Direction
359 357 359 3 4 1 357 350 345 343 342 347 349 348 345 346 343 343 343 339 335 318 302 294 289 283 277 278 274 272 265 267 263 270 273 272 273 271 273 274 273 268 269
360 6 11 9 13 10 356 354 353 350 351 354 353 356 354 353 352 351 351 348 345 337 331 323 312 298 290 283 280 276 271 270 270 261 281 282 272 275 278 276 281 273 263
8 6 9 8 5 359 353 352 353 354 3 6 5 4 1 360 0 4 4 3 360 355 348 343 337 328 312 299 292 282 276 273 272 270 269 288 286 293 279 280 283 284 278
10 1 357 352 334 320 323 335 350 356 358 6 11 15 13 10 8 8 8 9 11 8 2 1 358 351 343 328 315 298 286 280 278 280 279 280 284 298 296 288 281 286 284
348 358 350 319 143 114 101 84 49 3 4 1 4 5 8 12 15 15 16 15 11 9 9 8 3 3 8 3 348 334 319 304 295 290 280 274 283 283 298 292 277 292 283
11 353 326 296 293 321 321 334 355 3 8 14 13 9 9 17 9 13 15 18 18 17 9 6 4 2 1 6 5 5 359 334 321 310 302 286 288 287 294 289 287 284 276
1 346 315 308 322 334 339 344 350 351 355 0 1 3 7 5 4 7 10 12 15 13 12 11 10 5 2 1 3 4 6 2 355 337 323 317 309 302 296 293 298 296 290
344 324 324 333 334 342 350 355 360 5 5 4 2 2 4 4 1 359 6 13 13 14 13 12 9 6 4 4 4 3 5 5 0 350 342 336 334 332 316 308 307 303 306
332 326 320 339 346 349 354 359 2 9 10 9 9 4 4 4 4 359 0 9 20 16 9 9 8 8 5 7 8 6 5 2 0 360 358 352 347 342 338 327 317 309 299
332 317 324 331 349 354 354 2 4 8 10 10 8 9 4 5 4 4 2 16 19 23 26 18 11 11 7 7 7 0 358 355 354 353 352 348 347 347 347 341 330 317 311
319 308 321 335 350 355 1 3 5 5 7 9 5 4 6 4 4 5 6 13 18 18 16 15 14 12 13 14 15 14 11 10 3 357 350 347 345 343 341 340 336 329 320
312 311 321 332 343 351 360 3 1 1 1 1 357 356 357 0 2 2 5 8 9 17 15 13 11 9 11 11 13 11 10 10 8 4 360 353 347 340 340 338 337 332 333
311 307 315 329 337 343 351 354 359 1 356 354 353 352 354 355 355 356 358 1 3 9 12 9 6 5 5 6 4 3 4 3 360 357 356 352 351 350 345 341 339 335 331
310 308 310 323 335 339 349 352 353 354 355 354 351 350 352 354 354 355 356 358 0 1 3 4 3 2 3 2 1 360 359 358 355 353 351 349 347 345 342 337 333 330 324
306 306 307 318 331 341 344 345 356 0 358 354 350 354 349 350 351 353 355 356 357 356 358 360 359 357 357 356 354 354 353 352 350 349 348 345 342 340 336 335 332 328 323
310 310 306 310 320 331 343 348 354 359 1 2 1 357 359 356 353 352 353 354 353 353 357 356 354 353 352 352 350 348 349 348 347 346 344 342 339 337 334 333 330 327 322
303 308 309 308 313 319 325 329 338 346 355 359 358 356 355 352 351 350 348 349 352 352 353 351 351 351 350 349 348 346 345 346 346 344 342 340 338 336 334 332 330 327 321
300 306 315 319 318 320 323 327 330 333 338 346 353 353 352 350 349 348 346 349 348 350 349 348 348 347 347 346 345 344 343 342 342 341 341 340 339 336 332 330 328 326 322
297 305 314 319 323 326 328 331 333 335 337 339 343 346 346 348 350 349 348 348 346 346 346 345 345 345 345 344 343 342 341 340 339 339 339 338 336 334 331 329 327 326 322
297 306 315 321 326 328 330 334 336 336 337 338 341 341 340 342 343 344 346 347 346 346 345 345 344 344 343 343 342 341 340 339 339 338 337 335 334 333 329 327 325 323 321
297 306 316 321 324 328 331 332 334 335 335 337 341 343 341 340 342 344 345 346 346 345 345 344 344 344 343 342 342 340 340 339 338 337 336 335 334 330 331 328 326 324 322
298 306 313 318 323 327 331 333 334 335 337 336 337 343 343 343 344 344 345 345 345 345 345 344 344 343 343 342 341 340 339 338 338 337 336 334 333 331 330 329 327 325 323
299 305 313 318 323 328 330 332 334 335 335 337 339 340 342 343 344 344 344 345 345 345 345 345 344 344 344 343 342 341 340 339 338 338 335 333 332 331 331 330 329 327 325
301 306 310 316 322 326 329 331 333 334 336 338 340 341 341 342 343 343 344 344 345 345 345 345 344 344 343 343 343 342 342 341 340 338 336 334 332 332 333 332 330 329 326
302 307 313 318 323 326 328 330 333 336 337 338 339 340 341 342 343 343 344 344 345 344 344 344 345 344 344 343 343 343 342 341 340 340 337 335 334 334 336 335 334 332 330
311 316 319 322 324 326 329 331 333 335 336 338 339 341 341 342 343 343 344 344 344 344 344 345 344 344 344 344 345 344 344 343 343 342 343 342 339 339 339 338 337 336 334